User: anonymous   Login
Location: Unspecified
(0.0000°N, 0.0000°E)
Time: 00:09:04
(UTC+00:00)
Language:

STARLINK-35132 - Orbit

View from above orbital plane
View from above orbital plane
View from above satellite
View from above satellite

Ground track
Ground track

The orbit is defined by the following mean orbital elements,

1 66461U          26145.61838411 +.00000000 +00000-0 +63857-3 0 00008
2 66461  42.9983 221.5487 0001862 263.3825  96.6814 15.27585855    00
Epoch (UTC): 25 May 2026 14:50:28
Eccentricity: 0.0001862
inclination: 42.9983°
perigee height: 482 km
apogee height: 484 km
right ascension of ascending node: 221.5487°
argument of perigee: 263.3825°
revolutions per day: 15.27585855
mean anomaly at epoch: 96.6814°

The dashed part of the orbit path shows where the satellite is in the earth's shadow,  

DLR